DatumTemp.
Ø
Temp.
Max.
Temp.
Min.
Luftfeuchtigkeit
Ø
Luftdruck
Max.
Luftdruck
Min.
RegenmengeWind
Ø
Wind
Max.
Solarstrahlung
Ø
Solarstrahlung
Max.
UV Index
Max.
25. Nov 2020 um 00:00 Uhr1.7°C1.8°C1.7°C97%1026.0hPa1026.0hPa0.0mm0.3km/h7.9km/h0.0W/qm0.0W/qm0.0
25. Nov 2020 um 00:05 Uhr1.7°C1.7°C1.7°C97%1026.0hPa1026.0hPa0.0mm1.1km/h0.0km/h0.0W/qm0.0W/qm0.0
25. Nov 2020 um 00:10 Uhr1.7°C1.7°C1.7°C97%1026.0hPa1025.9hPa0.0mm0.0km/h0.0km/h0.0W/qm0.0W/qm0.0
25. Nov 2020 um 00:15 Uhr1.8°C1.8°C1.7°C97%1026.0hPa1026.0hPa0.0mm0.0km/h0.0km/h0.0W/qm0.0W/qm0.0
25. Nov 2020 um 00:20 Uhr1.8°C1.8°C1.8°C97%1026.0hPa1025.9hPa0.0mm0.0km/h0.0km/h0.0W/qm0.0W/qm0.0
25. Nov 2020 um 00:25 Uhr1.8°C1.8°C1.8°C97%1026.0hPa1026.0hPa0.0mm0.0km/h0.0km/h0.0W/qm0.0W/qm0.0
25. Nov 2020 um 00:30 Uhr1.8°C1.8°C1.8°C97%1026.0hPa1026.0hPa0.0mm0.0km/h0.0km/h0.0W/qm0.0W/qm0.0
25. Nov 2020 um 00:35 Uhr1.7°C1.7°C1.7°C97%1026.0hPa1025.9hPa0.0mm0.0km/h0.0km/h0.0W/qm0.0W/qm0.0
25. Nov 2020 um 00:40 Uhr1.7°C1.7°C1.7°C98%1026.0hPa1025.9hPa0.0mm0.0km/h0.0km/h0.0W/qm0.0W/qm0.0
25. Nov 2020 um 00:45 Uhr1.7°C1.8°C1.7°C98%1025.9hPa1025.8hPa0.0mm0.0km/h0.0km/h0.0W/qm0.0W/qm0.0
25. Nov 2020 um 00:50 Uhr1.8°C1.8°C1.7°C98%1025.8hPa1025.7hPa0.0mm0.0km/h0.0km/h0.0W/qm0.0W/qm0.0
25. Nov 2020 um 00:55 Uhr1.7°C1.7°C1.7°C98%1025.8hPa1025.7hPa0.0mm0.0km/h3.2km/h0.0W/qm0.0W/qm0.0
25. Nov 2020 um 01:00 Uhr1.7°C1.7°C1.7°C98%1025.8hPa1025.7hPa0.0mm0.0km/h0.0km/h0.0W/qm0.0W/qm0.0
25. Nov 2020 um 01:05 Uhr1.7°C1.7°C1.7°C98%1025.7hPa1025.7hPa0.0mm0.0km/h0.0km/h0.0W/qm0.0W/qm0.0
25. Nov 2020 um 01:10 Uhr1.7°C1.7°C1.7°C98%1025.7hPa1025.6hPa0.0mm0.0km/h0.0km/h0.0W/qm0.0W/qm0.0
25. Nov 2020 um 01:15 Uhr1.7°C1.7°C1.7°C98%1025.6hPa1025.5hPa0.0mm0.2km/h4.7km/h0.0W/qm0.0W/qm0.0
25. Nov 2020 um 01:20 Uhr1.7°C1.7°C1.7°C98%1025.5hPa1025.5hPa0.0mm1.4km/h4.7km/h0.0W/qm0.0W/qm0.0
25. Nov 2020 um 01:25 Uhr1.7°C1.7°C1.7°C98%1025.5hPa1025.4hPa0.0mm1.2km/h0.0km/h0.0W/qm0.0W/qm0.0
25. Nov 2020 um 01:30 Uhr1.7°C1.7°C1.7°C98%1025.5hPa1025.4hPa0.0mm0.0km/h0.0km/h0.0W/qm0.0W/qm0.0
25. Nov 2020 um 01:35 Uhr1.7°C1.7°C1.7°C98%1025.5hPa1025.4hPa0.0mm0.0km/h4.7km/h0.0W/qm0.0W/qm0.0
25. Nov 2020 um 01:40 Uhr1.7°C1.7°C1.7°C98%1025.5hPa1025.4hPa0.0mm0.0km/h0.0km/h0.0W/qm0.0W/qm0.0
25. Nov 2020 um 01:45 Uhr1.7°C1.7°C1.7°C98%1025.5hPa1025.5hPa0.0mm0.0km/h0.0km/h0.0W/qm0.0W/qm0.0
25. Nov 2020 um 01:50 Uhr1.7°C1.7°C1.7°C98%1025.5hPa1025.5hPa0.0mm0.0km/h0.0km/h0.0W/qm0.0W/qm0.0
25. Nov 2020 um 01:55 Uhr1.7°C1.7°C1.7°C98%1025.5hPa1025.5hPa0.0mm0.0km/h0.0km/h0.0W/qm0.0W/qm0.0
25. Nov 2020 um 02:00 Uhr1.7°C1.7°C1.7°C98%1025.5hPa1025.5hPa0.0mm0.7km/h6.5km/h0.0W/qm0.0W/qm0.0
25. Nov 2020 um 02:05 Uhr1.6°C1.7°C1.6°C98%1025.6hPa1025.5hPa0.0mm1.2km/h0.0km/h0.0W/qm0.0W/qm0.0
25. Nov 2020 um 02:10 Uhr1.7°C1.7°C1.6°C98%1025.5hPa1025.5hPa0.0mm0.0km/h0.0km/h0.0W/qm0.0W/qm0.0
25. Nov 2020 um 02:15 Uhr1.7°C1.7°C1.7°C98%1025.6hPa1025.5hPa0.0mm0.0km/h1.4km/h0.0W/qm0.0W/qm0.0
25. Nov 2020 um 02:20 Uhr1.7°C1.7°C1.7°C98%1025.5hPa1025.4hPa0.0mm0.0km/h0.0km/h0.0W/qm0.0W/qm0.0
25. Nov 2020 um 02:25 Uhr1.7°C1.7°C1.7°C98%1025.5hPa1025.4hPa0.0mm0.7km/h4.7km/h0.0W/qm0.0W/qm0.0
25. Nov 2020 um 02:30 Uhr1.7°C1.7°C1.7°C98%1025.5hPa1025.4hPa0.0mm1.4km/h0.0km/h0.0W/qm0.0W/qm0.0
25. Nov 2020 um 02:35 Uhr1.7°C1.7°C1.6°C98%1025.5hPa1025.4hPa0.0mm0.9km/h4.7km/h0.0W/qm0.0W/qm0.0
25. Nov 2020 um 02:40 Uhr1.6°C1.6°C1.6°C98%1025.4hPa1025.4hPa0.0mm1.1km/h4.7km/h0.0W/qm0.0W/qm0.0
25. Nov 2020 um 02:45 Uhr1.6°C1.6°C1.6°C98%1025.4hPa1025.4hPa0.0mm1.4km/h0.0km/h0.0W/qm0.0W/qm0.0
25. Nov 2020 um 02:50 Uhr1.6°C1.6°C1.6°C98%1025.4hPa1025.4hPa0.0mm0.0km/h7.9km/h0.0W/qm0.0W/qm0.0
25. Nov 2020 um 02:55 Uhr1.6°C1.6°C1.6°C98%1025.4hPa1025.4hPa0.0mm0.0km/h0.0km/h0.0W/qm0.0W/qm0.0
25. Nov 2020 um 03:00 Uhr1.6°C1.6°C1.6°C98%1025.3hPa1025.3hPa0.0mm0.0km/h6.5km/h0.0W/qm0.0W/qm0.0
25. Nov 2020 um 03:05 Uhr1.6°C1.7°C1.6°C98%1025.3hPa1025.3hPa0.0mm1.4km/h4.7km/h0.0W/qm0.0W/qm0.0
25. Nov 2020 um 03:10 Uhr1.7°C1.7°C1.7°C98%1025.3hPa1025.2hPa0.0mm1.4km/h0.0km/h0.0W/qm0.0W/qm0.0
25. Nov 2020 um 03:15 Uhr1.7°C1.7°C1.6°C98%1025.3hPa1025.2hPa0.0mm1.2km/h4.7km/h0.0W/qm0.0W/qm0.0
25. Nov 2020 um 03:20 Uhr1.6°C1.6°C1.6°C98%1025.2hPa1025.1hPa0.0mm1.4km/h1.4km/h0.0W/qm0.0W/qm0.0
25. Nov 2020 um 03:25 Uhr1.6°C1.7°C1.6°C98%1025.2hPa1025.1hPa0.0mm0.8km/h3.2km/h0.0W/qm0.0W/qm0.0
25. Nov 2020 um 03:30 Uhr1.6°C1.6°C1.6°C98%1025.2hPa1025.1hPa0.0mm0.0km/h0.0km/h0.0W/qm0.0W/qm0.0
25. Nov 2020 um 03:35 Uhr1.6°C1.6°C1.6°C98%1025.2hPa1025.1hPa0.0mm0.6km/h6.5km/h0.0W/qm0.0W/qm0.0
25. Nov 2020 um 03:40 Uhr1.6°C1.6°C1.6°C98%1025.2hPa1025.1hPa0.0mm1.4km/h1.4km/h0.0W/qm0.0W/qm0.0
25. Nov 2020 um 03:45 Uhr1.6°C1.6°C1.6°C98%1025.2hPa1025.1hPa0.0mm1.2km/h4.7km/h0.0W/qm0.0W/qm0.0
25. Nov 2020 um 03:50 Uhr1.6°C1.6°C1.6°C98%1025.2hPa1025.1hPa0.0mm1.4km/h6.5km/h0.0W/qm0.0W/qm0.0
25. Nov 2020 um 03:55 Uhr1.6°C1.6°C1.6°C98%1025.2hPa1025.1hPa0.0mm1.4km/h6.5km/h0.0W/qm0.0W/qm0.0
25. Nov 2020 um 04:00 Uhr1.6°C1.6°C1.6°C98%1025.1hPa1025.1hPa0.0mm1.0km/h0.0km/h0.0W/qm0.0W/qm0.0
25. Nov 2020 um 04:05 Uhr1.6°C1.6°C1.6°C98%1025.1hPa1025.1hPa0.0mm0.0km/h0.0km/h0.0W/qm0.0W/qm0.0
25. Nov 2020 um 04:10 Uhr1.6°C1.6°C1.6°C98%1025.2hPa1025.1hPa0.0mm0.0km/h0.0km/h0.0W/qm0.0W/qm0.0
25. Nov 2020 um 04:15 Uhr1.6°C1.6°C1.6°C98%1025.2hPa1025.1hPa0.0mm0.0km/h1.4km/h0.0W/qm0.0W/qm0.0
25. Nov 2020 um 04:20 Uhr1.6°C1.6°C1.6°C98%1025.2hPa1025.2hPa0.0mm0.0km/h4.7km/h0.0W/qm0.0W/qm0.0
25. Nov 2020 um 04:25 Uhr1.6°C1.6°C1.6°C98%1025.2hPa1025.1hPa0.0mm0.0km/h0.0km/h0.0W/qm0.0W/qm0.0
25. Nov 2020 um 04:30 Uhr1.6°C1.6°C1.6°C98%1025.2hPa1025.2hPa0.0mm0.0km/h0.0km/h0.0W/qm0.0W/qm0.0
25. Nov 2020 um 04:35 Uhr1.6°C1.6°C1.6°C98%1025.3hPa1025.2hPa0.0mm0.4km/h6.5km/h0.0W/qm0.0W/qm0.0
25. Nov 2020 um 04:40 Uhr1.6°C1.6°C1.6°C98%1025.3hPa1025.3hPa0.0mm2.2km/h4.7km/h0.0W/qm0.0W/qm0.0
25. Nov 2020 um 04:45 Uhr1.6°C1.6°C1.6°C98%1025.3hPa1025.3hPa0.0mm2.5km/h0.0km/h0.0W/qm0.0W/qm0.0
25. Nov 2020 um 04:50 Uhr1.6°C1.6°C1.6°C98%1025.3hPa1025.3hPa0.0mm0.5km/h0.0km/h0.0W/qm0.0W/qm0.0
25. Nov 2020 um 04:55 Uhr1.6°C1.6°C1.6°C98%1025.3hPa1025.3hPa0.0mm0.3km/h6.5km/h0.0W/qm0.0W/qm0.0
25. Nov 2020 um 05:00 Uhr1.5°C1.5°C1.4°C98%1025.3hPa1025.3hPa0.0mm1.7km/h6.5km/h0.0W/qm0.0W/qm0.0
25. Nov 2020 um 05:05 Uhr1.4°C1.5°C1.4°C98%1025.3hPa1025.3hPa0.0mm2.3km/h3.2km/h0.0W/qm0.0W/qm0.0
25. Nov 2020 um 05:10 Uhr1.4°C1.5°C1.4°C98%1025.3hPa1025.2hPa0.0mm1.4km/h9.7km/h0.0W/qm0.0W/qm0.0
25. Nov 2020 um 05:15 Uhr1.4°C1.4°C1.4°C98%1025.3hPa1025.3hPa0.0mm2.3km/h7.9km/h0.0W/qm0.0W/qm0.0
25. Nov 2020 um 05:20 Uhr1.4°C1.4°C1.4°C98%1025.4hPa1025.3hPa0.0mm3.2km/h6.5km/h0.0W/qm0.0W/qm0.0
25. Nov 2020 um 05:25 Uhr1.4°C1.4°C1.4°C98%1025.4hPa1025.3hPa0.0mm2.1km/h3.2km/h0.0W/qm0.0W/qm0.0
25. Nov 2020 um 05:30 Uhr1.4°C1.4°C1.4°C98%1025.3hPa1025.3hPa0.0mm1.4km/h3.2km/h0.0W/qm0.0W/qm0.0
25. Nov 2020 um 05:35 Uhr1.4°C1.4°C1.4°C98%1025.3hPa1025.3hPa0.0mm1.1km/h0.0km/h0.0W/qm0.0W/qm0.0
25. Nov 2020 um 05:40 Uhr1.4°C1.4°C1.4°C98%1025.3hPa1025.2hPa0.0mm0.0km/h0.0km/h0.0W/qm0.0W/qm0.0
25. Nov 2020 um 05:45 Uhr1.4°C1.4°C1.4°C98%1025.3hPa1025.2hPa0.0mm0.3km/h11.2km/h0.0W/qm0.0W/qm0.0
25. Nov 2020 um 05:50 Uhr1.4°C1.4°C1.4°C98%1025.3hPa1025.2hPa0.0mm2.5km/h6.5km/h0.0W/qm0.0W/qm0.0
25. Nov 2020 um 05:55 Uhr1.4°C1.4°C1.4°C98%1025.3hPa1025.3hPa0.0mm3.5km/h6.5km/h0.0W/qm0.0W/qm0.0
25. Nov 2020 um 06:00 Uhr1.4°C1.4°C1.3°C98%1025.4hPa1025.3hPa0.0mm3.2km/h6.5km/h0.0W/qm0.0W/qm0.0
25. Nov 2020 um 06:05 Uhr1.3°C1.3°C1.3°C98%1025.3hPa1025.3hPa0.0mm3.2km/h4.7km/h0.0W/qm0.0W/qm0.0
25. Nov 2020 um 06:10 Uhr1.2°C1.3°C1.2°C98%1025.3hPa1025.3hPa0.0mm3.2km/h4.7km/h0.0W/qm0.0W/qm0.0
25. Nov 2020 um 06:15 Uhr1.2°C1.2°C1.2°C98%1025.4hPa1025.3hPa0.0mm1.4km/h3.2km/h0.0W/qm0.0W/qm0.0
25. Nov 2020 um 06:20 Uhr1.2°C1.2°C1.2°C98%1025.4hPa1025.3hPa0.0mm0.3km/h3.2km/h0.0W/qm0.0W/qm0.0
25. Nov 2020 um 06:25 Uhr1.2°C1.2°C1.2°C98%1025.4hPa1025.3hPa0.0mm0.0km/h4.7km/h0.0W/qm0.0W/qm0.0
25. Nov 2020 um 06:30 Uhr1.2°C1.2°C1.2°C98%1025.4hPa1025.3hPa0.0mm1.9km/h6.5km/h0.0W/qm0.0W/qm0.0
25. Nov 2020 um 06:35 Uhr1.2°C1.2°C1.2°C98%1025.4hPa1025.3hPa0.0mm3.2km/h7.9km/h0.0W/qm0.0W/qm0.0
25. Nov 2020 um 06:40 Uhr1.2°C1.2°C1.2°C98%1025.4hPa1025.3hPa0.0mm3.2km/h4.7km/h0.0W/qm0.0W/qm0.0
25. Nov 2020 um 06:45 Uhr1.2°C1.2°C1.2°C98%1025.4hPa1025.3hPa0.0mm2.6km/h0.0km/h0.0W/qm0.0W/qm0.0
25. Nov 2020 um 06:50 Uhr1.2°C1.2°C1.2°C98%1025.4hPa1025.4hPa0.0mm1.4km/h3.2km/h0.0W/qm0.0W/qm0.0
25. Nov 2020 um 06:55 Uhr1.2°C1.2°C1.1°C98%1025.4hPa1025.4hPa0.0mm0.6km/h4.7km/h0.0W/qm0.0W/qm0.0
25. Nov 2020 um 07:00 Uhr1.1°C1.2°C1.1°C98%1025.5hPa1025.4hPa0.0mm1.4km/h1.4km/h0.0W/qm0.0W/qm0.0
25. Nov 2020 um 07:05 Uhr1.2°C1.2°C1.2°C98%1025.5hPa1025.4hPa0.0mm1.4km/h7.9km/h0.0W/qm0.0W/qm0.0
25. Nov 2020 um 07:10 Uhr1.2°C1.2°C1.2°C98%1025.5hPa1025.4hPa0.0mm1.4km/h4.7km/h0.0W/qm0.0W/qm0.0
25. Nov 2020 um 07:15 Uhr1.2°C1.2°C1.2°C98%1025.5hPa1025.5hPa0.0mm1.4km/h0.0km/h0.0W/qm0.0W/qm0.0
25. Nov 2020 um 07:20 Uhr1.2°C1.2°C1.2°C98%1025.5hPa1025.4hPa0.0mm0.0km/h0.0km/h0.0W/qm0.0W/qm0.0
25. Nov 2020 um 07:25 Uhr1.2°C1.2°C1.2°C98%1025.5hPa1025.5hPa0.0mm1.1km/h9.7km/h0.0W/qm0.0W/qm0.0
25. Nov 2020 um 07:30 Uhr1.2°C1.2°C1.2°C98%1025.7hPa1025.5hPa0.0mm2.8km/h3.2km/h0.0W/qm0.0W/qm0.0
25. Nov 2020 um 07:35 Uhr1.2°C1.2°C1.2°C98%1025.6hPa1025.6hPa0.0mm2.2km/h3.2km/h0.0W/qm0.0W/qm0.0
25. Nov 2020 um 07:40 Uhr1.2°C1.2°C1.2°C98%1025.7hPa1025.6hPa0.0mm1.4km/h4.7km/h0.0W/qm0.0W/qm0.0
25. Nov 2020 um 07:45 Uhr1.2°C1.2°C1.2°C98%1025.7hPa1025.7hPa0.0mm1.2km/h0.0km/h0.0W/qm0.0W/qm0.0
25. Nov 2020 um 07:50 Uhr1.2°C1.2°C1.2°C98%1025.7hPa1025.7hPa0.0mm0.0km/h4.7km/h0.0W/qm0.0W/qm0.0
25. Nov 2020 um 07:55 Uhr1.2°C1.2°C1.2°C98%1025.8hPa1025.7hPa0.0mm0.0km/h6.5km/h1.7W/qm5.0W/qm0.0
25. Nov 2020 um 08:00 Uhr1.2°C1.2°C1.2°C98%1025.8hPa1025.7hPa0.0mm0.5km/h6.5km/h5.0W/qm5.0W/qm0.0
25. Nov 2020 um 08:05 Uhr1.3°C1.3°C1.2°C98%1025.8hPa1025.7hPa0.0mm1.4km/h0.0km/h6.6W/qm7.0W/qm0.0
25. Nov 2020 um 08:10 Uhr1.3°C1.3°C1.2°C97%1025.8hPa1025.7hPa0.0mm1.4km/h6.5km/h9.0W/qm11.0W/qm0.0
25. Nov 2020 um 08:15 Uhr1.2°C1.2°C1.2°C98%1025.8hPa1025.7hPa0.0mm1.9km/h4.7km/h11.2W/qm12.0W/qm0.0
25. Nov 2020 um 08:20 Uhr1.2°C1.2°C1.2°C98%1025.8hPa1025.7hPa0.0mm1.8km/h3.2km/h12.0W/qm12.0W/qm0.0
25. Nov 2020 um 08:25 Uhr1.3°C1.3°C1.2°C97%1025.7hPa1025.7hPa0.0mm1.2km/h3.2km/h13.6W/qm14.0W/qm0.0
25. Nov 2020 um 08:30 Uhr1.3°C1.3°C1.3°C97%1025.7hPa1025.7hPa0.0mm0.5km/h4.7km/h14.0W/qm14.0W/qm0.0
25. Nov 2020 um 08:35 Uhr1.3°C1.3°C1.3°C97%1025.8hPa1025.7hPa0.0mm1.4km/h7.9km/h17.4W/qm19.0W/qm0.0
25. Nov 2020 um 08:40 Uhr1.3°C1.3°C1.3°C97%1025.8hPa1025.7hPa0.0mm2.8km/h4.7km/h20.5W/qm21.0W/qm0.0
25. Nov 2020 um 08:45 Uhr1.3°C1.3°C1.3°C97%1025.8hPa1025.7hPa0.0mm1.4km/h0.0km/h21.0W/qm21.0W/qm0.0
25. Nov 2020 um 08:50 Uhr1.3°C1.3°C1.3°C97%1025.8hPa1025.8hPa0.0mm0.4km/h3.2km/h24.0W/qm25.0W/qm0.0
25. Nov 2020 um 08:55 Uhr1.3°C1.3°C1.3°C97%1025.8hPa1025.8hPa0.0mm0.8km/h4.7km/h23.5W/qm25.0W/qm0.0
25. Nov 2020 um 09:00 Uhr1.3°C1.3°C1.3°C97%1025.8hPa1025.8hPa0.0mm1.4km/h1.4km/h25.0W/qm25.0W/qm0.0
25. Nov 2020 um 09:05 Uhr1.4°C1.4°C1.3°C97%1025.8hPa1025.7hPa0.0mm0.7km/h4.7km/h25.6W/qm26.0W/qm0.0
25. Nov 2020 um 09:10 Uhr1.4°C1.4°C1.4°C97%1025.8hPa1025.8hPa0.0mm1.4km/h4.7km/h29.0W/qm30.0W/qm0.0
25. Nov 2020 um 09:15 Uhr1.4°C1.4°C1.4°C97%1025.9hPa1025.8hPa0.0mm0.9km/h4.7km/h32.0W/qm32.0W/qm0.0
25. Nov 2020 um 09:20 Uhr1.4°C1.4°C1.4°C97%1025.9hPa1025.8hPa0.0mm1.0km/h3.2km/h33.0W/qm33.0W/qm0.0
25. Nov 2020 um 09:25 Uhr1.4°C1.4°C1.3°C97%1025.9hPa1025.8hPa0.0mm1.4km/h4.7km/h33.0W/qm33.0W/qm0.0
25. Nov 2020 um 09:30 Uhr1.3°C1.3°C1.3°C97%1026.0hPa1025.9hPa0.0mm1.5km/h7.9km/h34.7W/qm37.0W/qm0.0
25. Nov 2020 um 09:35 Uhr1.3°C1.3°C1.3°C97%1025.9hPa1025.9hPa0.0mm3.2km/h11.2km/h38.0W/qm39.0W/qm0.0
25. Nov 2020 um 09:40 Uhr1.3°C1.3°C1.2°C97%1025.9hPa1025.9hPa0.0mm3.8km/h7.9km/h37.8W/qm39.0W/qm0.0
25. Nov 2020 um 09:45 Uhr1.3°C1.3°C1.3°C97%1026.0hPa1025.9hPa0.0mm3.7km/h6.5km/h39.8W/qm40.0W/qm0.0
25. Nov 2020 um 09:50 Uhr1.3°C1.3°C1.3°C97%1026.1hPa1026.0hPa0.0mm1.7km/h4.7km/h39.2W/qm40.0W/qm0.0
25. Nov 2020 um 09:55 Uhr1.4°C1.4°C1.3°C97%1026.1hPa1026.0hPa0.0mm1.3km/h7.9km/h43.2W/qm46.0W/qm0.0
25. Nov 2020 um 10:00 Uhr1.3°C1.3°C1.3°C97%1026.1hPa1026.0hPa0.0mm1.9km/h6.5km/h47.0W/qm49.0W/qm0.0
25. Nov 2020 um 10:05 Uhr1.3°C1.3°C1.3°C97%1026.0hPa1026.0hPa0.0mm2.9km/h0.0km/h49.7W/qm51.0W/qm0.0
25. Nov 2020 um 10:10 Uhr1.2°C1.3°C1.2°C97%1026.0hPa1026.0hPa0.0mm1.1km/h0.0km/h46.2W/qm47.0W/qm0.0
25. Nov 2020 um 10:15 Uhr1.2°C1.3°C1.2°C97%1026.0hPa1026.0hPa0.0mm0.0km/h0.0km/h47.5W/qm49.0W/qm0.0
25. Nov 2020 um 10:20 Uhr1.3°C1.3°C1.3°C97%1026.1hPa1026.0hPa0.0mm0.8km/h6.5km/h51.8W/qm53.0W/qm0.0
25. Nov 2020 um 10:25 Uhr1.3°C1.3°C1.3°C97%1026.1hPa1026.1hPa0.0mm2.3km/h9.7km/h55.5W/qm56.0W/qm0.0
25. Nov 2020 um 10:30 Uhr1.3°C1.3°C1.3°C97%1026.1hPa1026.1hPa0.0mm3.2km/h4.7km/h54.8W/qm56.0W/qm0.0
25. Nov 2020 um 10:35 Uhr1.3°C1.3°C1.3°C97%1026.1hPa1026.1hPa0.0mm3.2km/h7.9km/h56.4W/qm58.0W/qm0.0
25. Nov 2020 um 10:40 Uhr1.3°C1.3°C1.2°C97%1026.1hPa1026.1hPa0.0mm3.2km/h4.7km/h61.2W/qm63.0W/qm0.0
25. Nov 2020 um 10:45 Uhr1.2°C1.2°C1.2°C97%1026.1hPa1026.1hPa0.0mm1.8km/h6.5km/h64.6W/qm69.0W/qm0.0
25. Nov 2020 um 10:50 Uhr1.2°C1.2°C1.2°C97%1026.1hPa1026.1hPa0.0mm1.4km/h0.0km/h70.8W/qm72.0W/qm0.0
25. Nov 2020 um 10:55 Uhr1.2°C1.2°C1.2°C97%1026.1hPa1026.0hPa0.0mm1.4km/h4.7km/h68.3W/qm76.0W/qm0.0
25. Nov 2020 um 11:00 Uhr1.3°C1.3°C1.2°C97%1026.0hPa1026.0hPa0.0mm1.4km/h3.2km/h72.8W/qm76.0W/qm0.0
25. Nov 2020 um 11:05 Uhr1.3°C1.4°C1.3°C97%1026.0hPa1025.9hPa0.0mm1.4km/h4.7km/h65.4W/qm67.0W/qm0.0
25. Nov 2020 um 11:10 Uhr1.4°C1.4°C1.4°C97%1025.9hPa1025.8hPa0.0mm1.4km/h3.2km/h72.5W/qm76.0W/qm0.0
25. Nov 2020 um 11:15 Uhr1.4°C1.5°C1.4°C96%1025.9hPa1025.8hPa0.0mm1.4km/h3.2km/h63.5W/qm67.0W/qm0.0
25. Nov 2020 um 11:20 Uhr1.6°C1.6°C1.6°C97%1025.9hPa1025.8hPa0.0mm1.2km/h4.7km/h64.0W/qm67.0W/qm0.0
25. Nov 2020 um 11:25 Uhr1.6°C1.6°C1.6°C97%1025.8hPa1025.7hPa0.0mm1.5km/h6.5km/h77.0W/qm81.0W/qm0.0
25. Nov 2020 um 11:30 Uhr1.6°C1.6°C1.6°C96%1025.7hPa1025.7hPa0.0mm3.2km/h4.7km/h81.0W/qm81.0W/qm0.0
25. Nov 2020 um 11:35 Uhr1.6°C1.6°C1.6°C96%1025.8hPa1025.7hPa0.0mm3.2km/h3.2km/h82.0W/qm88.0W/qm0.0
25. Nov 2020 um 11:40 Uhr1.6°C1.6°C1.6°C96%1025.7hPa1025.7hPa0.0mm2.8km/h4.7km/h86.4W/qm90.0W/qm0.0
25. Nov 2020 um 11:45 Uhr1.6°C1.6°C1.6°C96%1025.7hPa1025.6hPa0.0mm1.4km/h0.0km/h83.0W/qm84.0W/qm0.0
25. Nov 2020 um 11:50 Uhr1.7°C1.7°C1.6°C96%1025.7hPa1025.7hPa0.0mm0.3km/h1.4km/h76.6W/qm79.0W/qm0.0
25. Nov 2020 um 11:55 Uhr1.7°C1.7°C1.7°C96%1025.7hPa1025.7hPa0.0mm0.0km/h0.0km/h72.4W/qm74.0W/qm0.0
25. Nov 2020 um 12:00 Uhr1.7°C1.8°C1.7°C96%1025.7hPa1025.6hPa0.0mm0.0km/h0.0km/h76.2W/qm79.0W/qm0.0
25. Nov 2020 um 12:05 Uhr1.8°C1.8°C1.8°C96%1025.7hPa1025.6hPa0.0mm0.8km/h6.5km/h76.2W/qm77.0W/qm0.0
25. Nov 2020 um 12:10 Uhr1.8°C1.8°C1.8°C96%1025.6hPa1025.5hPa0.0mm1.4km/h1.4km/h77.0W/qm77.0W/qm0.0
25. Nov 2020 um 12:15 Uhr1.9°C1.9°C1.8°C96%1025.6hPa1025.5hPa0.0mm1.3km/h6.5km/h75.2W/qm76.0W/qm0.0
25. Nov 2020 um 12:20 Uhr1.9°C1.9°C1.9°C96%1025.5hPa1025.5hPa0.0mm0.6km/h7.9km/h76.5W/qm77.0W/qm0.0
25. Nov 2020 um 12:25 Uhr1.9°C1.9°C1.9°C96%1025.5hPa1025.5hPa0.0mm2.1km/h7.9km/h81.3W/qm84.0W/qm0.0
25. Nov 2020 um 12:30 Uhr1.8°C1.9°C1.8°C96%1025.5hPa1025.4hPa0.0mm3.2km/h4.7km/h84.0W/qm84.0W/qm0.0
25. Nov 2020 um 12:35 Uhr1.8°C1.8°C1.8°C96%1025.5hPa1025.4hPa0.0mm2.4km/h3.2km/h87.0W/qm88.0W/qm0.0
25. Nov 2020 um 12:40 Uhr1.7°C1.8°C1.7°C96%1025.5hPa1025.4hPa0.0mm2.0km/h6.5km/h79.4W/qm83.0W/qm0.0
25. Nov 2020 um 12:45 Uhr1.7°C1.7°C1.7°C96%1025.4hPa1025.4hPa0.0mm3.2km/h4.7km/h80.8W/qm84.0W/qm0.0
25. Nov 2020 um 12:50 Uhr1.8°C1.8°C1.7°C96%1025.5hPa1025.4hPa0.0mm2.7km/h1.4km/h88.0W/qm90.0W/qm0.0
25. Nov 2020 um 12:55 Uhr1.9°C1.9°C1.9°C96%1025.5hPa1025.4hPa0.0mm0.3km/h0.0km/h83.0W/qm84.0W/qm0.0
25. Nov 2020 um 13:00 Uhr2.0°C2.1°C1.9°C96%1025.4hPa1025.3hPa0.0mm0.0km/h3.2km/h78.8W/qm81.0W/qm0.0
25. Nov 2020 um 13:05 Uhr2.1°C2.2°C2.1°C96%1025.4hPa1025.3hPa0.0mm0.0km/h1.4km/h70.2W/qm74.0W/qm0.0
25. Nov 2020 um 13:10 Uhr2.2°C2.2°C2.2°C96%1025.4hPa1025.4hPa0.0mm0.4km/h4.7km/h65.7W/qm67.0W/qm0.0
25. Nov 2020 um 13:15 Uhr2.2°C2.2°C2.1°C96%1025.4hPa1025.3hPa0.0mm2.2km/h9.7km/h65.0W/qm67.0W/qm0.0
25. Nov 2020 um 13:20 Uhr2.1°C2.1°C2.1°C95%1025.4hPa1025.3hPa0.0mm3.9km/h7.9km/h68.5W/qm69.0W/qm0.0
25. Nov 2020 um 13:25 Uhr1.9°C1.9°C1.9°C95%1025.4hPa1025.4hPa0.0mm3.5km/h3.2km/h70.2W/qm72.0W/qm0.0
25. Nov 2020 um 13:30 Uhr1.9°C1.9°C1.9°C95%1025.4hPa1025.4hPa0.0mm2.2km/h0.0km/h65.3W/qm69.0W/qm0.0
25. Nov 2020 um 13:35 Uhr2.1°C2.1°C2.0°C96%1025.4hPa1025.4hPa0.0mm0.0km/h0.0km/h62.0W/qm62.0W/qm0.0
25. Nov 2020 um 13:40 Uhr2.2°C2.2°C2.1°C95%1025.4hPa1025.3hPa0.0mm0.0km/h0.0km/h59.2W/qm62.0W/qm0.0
25. Nov 2020 um 13:45 Uhr2.2°C2.3°C2.2°C95%1025.4hPa1025.3hPa0.0mm0.0km/h0.0km/h52.5W/qm54.0W/qm0.0
25. Nov 2020 um 13:50 Uhr2.3°C2.3°C2.3°C95%1025.4hPa1025.4hPa0.0mm0.0km/h1.4km/h50.2W/qm51.0W/qm0.0
25. Nov 2020 um 13:55 Uhr2.3°C2.3°C2.3°C95%1025.4hPa1025.4hPa0.0mm0.0km/h0.0km/h48.6W/qm51.0W/qm0.0
25. Nov 2020 um 14:00 Uhr2.3°C2.3°C2.3°C95%1025.4hPa1025.4hPa0.0mm0.0km/h6.5km/h46.0W/qm46.0W/qm0.0
25. Nov 2020 um 14:05 Uhr2.2°C2.3°C2.2°C95%1025.4hPa1025.4hPa0.0mm1.1km/h3.2km/h44.4W/qm46.0W/qm0.0
25. Nov 2020 um 14:10 Uhr2.2°C2.2°C2.1°C95%1025.4hPa1025.4hPa0.0mm1.9km/h6.5km/h42.5W/qm44.0W/qm0.0
25. Nov 2020 um 14:15 Uhr2.1°C2.1°C2.0°C95%1025.4hPa1025.3hPa0.0mm3.2km/h6.5km/h42.4W/qm44.0W/qm0.0
25. Nov 2020 um 14:20 Uhr2.0°C2.1°C2.0°C95%1025.3hPa1025.3hPa0.0mm2.4km/h0.0km/h42.0W/qm42.0W/qm0.0
25. Nov 2020 um 14:25 Uhr2.0°C2.1°C2.0°C95%1025.3hPa1025.3hPa0.0mm0.5km/h4.7km/h40.6W/qm42.0W/qm0.0
25. Nov 2020 um 14:30 Uhr2.0°C2.0°C1.9°C95%1025.3hPa1025.2hPa0.0mm1.4km/h6.5km/h37.0W/qm39.0W/qm0.0
25. Nov 2020 um 14:35 Uhr1.9°C1.9°C1.8°C95%1025.3hPa1025.2hPa0.0mm3.0km/h9.7km/h34.0W/qm35.0W/qm0.0
25. Nov 2020 um 14:40 Uhr1.8°C1.8°C1.8°C95%1025.3hPa1025.2hPa0.0mm3.2km/h6.5km/h30.8W/qm32.0W/qm0.0
25. Nov 2020 um 14:45 Uhr1.8°C1.8°C1.8°C95%1025.3hPa1025.2hPa0.0mm2.0km/h4.7km/h28.7W/qm30.0W/qm0.0
25. Nov 2020 um 14:50 Uhr1.8°C1.8°C1.7°C95%1025.3hPa1025.2hPa0.0mm1.4km/h3.2km/h26.7W/qm28.0W/qm0.0
25. Nov 2020 um 14:55 Uhr1.7°C1.7°C1.7°C95%1025.3hPa1025.2hPa0.0mm1.4km/h3.2km/h28.0W/qm28.0W/qm0.0
25. Nov 2020 um 15:00 Uhr1.7°C1.7°C1.6°C95%1025.4hPa1025.3hPa0.0mm3.2km/h7.9km/h26.0W/qm26.0W/qm0.0
25. Nov 2020 um 15:05 Uhr1.6°C1.6°C1.6°C95%1025.4hPa1025.3hPa0.0mm2.8km/h0.0km/h23.8W/qm25.0W/qm0.0
25. Nov 2020 um 15:10 Uhr1.7°C1.7°C1.6°C95%1025.4hPa1025.3hPa0.0mm1.4km/h4.7km/h19.2W/qm21.0W/qm0.0
25. Nov 2020 um 15:15 Uhr1.6°C1.6°C1.6°C95%1025.4hPa1025.4hPa0.0mm1.4km/h1.4km/h17.5W/qm18.0W/qm0.0
25. Nov 2020 um 15:20 Uhr1.6°C1.6°C1.5°C95%1025.4hPa1025.3hPa0.0mm1.2km/h3.2km/h14.0W/qm16.0W/qm0.0
25. Nov 2020 um 15:25 Uhr1.6°C1.6°C1.6°C95%1025.4hPa1025.4hPa0.0mm0.0km/h4.7km/h12.0W/qm12.0W/qm0.0
25. Nov 2020 um 15:30 Uhr1.5°C1.6°C1.4°C95%1025.4hPa1025.4hPa0.0mm0.9km/h7.9km/h11.8W/qm12.0W/qm0.0
25. Nov 2020 um 15:35 Uhr1.4°C1.4°C1.4°C95%1025.5hPa1025.4hPa0.0mm2.0km/h4.7km/h11.0W/qm11.0W/qm0.0
25. Nov 2020 um 15:40 Uhr1.3°C1.4°C1.3°C95%1025.5hPa1025.4hPa0.0mm3.2km/h9.7km/h11.0W/qm11.0W/qm0.0
25. Nov 2020 um 15:45 Uhr1.2°C1.3°C1.2°C96%1025.5hPa1025.4hPa0.0mm2.9km/h0.0km/h10.2W/qm11.0W/qm0.0
25. Nov 2020 um 15:50 Uhr1.2°C1.3°C1.2°C96%1025.4hPa1025.4hPa0.0mm0.8km/h0.0km/h8.5W/qm9.0W/qm0.0
25. Nov 2020 um 15:55 Uhr1.3°C1.3°C1.3°C96%1025.5hPa1025.4hPa0.0mm0.0km/h0.0km/h6.2W/qm7.0W/qm0.0
25. Nov 2020 um 16:00 Uhr1.3°C1.3°C1.3°C96%1025.6hPa1025.5hPa0.0mm0.0km/h3.2km/h5.0W/qm5.0W/qm0.0
25. Nov 2020 um 16:05 Uhr1.2°C1.3°C1.2°C96%1025.6hPa1025.6hPa0.0mm0.0km/h0.0km/h2.5W/qm5.0W/qm0.0
25. Nov 2020 um 16:10 Uhr1.3°C1.3°C1.3°C96%1025.6hPa1025.5hPa0.0mm0.0km/h0.0km/h0.0W/qm0.0W/qm0.0
25. Nov 2020 um 16:15 Uhr1.3°C1.3°C1.3°C96%1025.6hPa1025.5hPa0.0mm0.0km/h3.2km/h0.0W/qm0.0W/qm0.0
25. Nov 2020 um 16:20 Uhr1.2°C1.3°C1.2°C96%1025.6hPa1025.5hPa0.0mm0.0km/h0.0km/h0.0W/qm0.0W/qm0.0
25. Nov 2020 um 16:25 Uhr1.2°C1.2°C1.2°C96%1025.6hPa1025.6hPa0.0mm0.0km/h4.7km/h0.0W/qm0.0W/qm0.0
25. Nov 2020 um 16:30 Uhr1.1°C1.2°C1.1°C96%1025.6hPa1025.6hPa0.0mm1.5km/h11.2km/h0.0W/qm0.0W/qm0.0
25. Nov 2020 um 16:35 Uhr1.0°C1.1°C0.9°C96%1025.7hPa1025.6hPa0.0mm3.5km/h7.9km/h0.0W/qm0.0W/qm0.0
25. Nov 2020 um 16:40 Uhr0.9°C0.9°C0.9°C96%1025.8hPa1025.7hPa0.0mm3.6km/h4.7km/h0.0W/qm0.0W/qm0.0
25. Nov 2020 um 16:45 Uhr0.9°C0.9°C0.9°C96%1025.8hPa1025.8hPa0.0mm1.6km/h0.0km/h0.0W/qm0.0W/qm0.0
25. Nov 2020 um 16:50 Uhr0.9°C0.9°C0.9°C96%1025.9hPa1025.8hPa0.0mm0.0km/h3.2km/h0.0W/qm0.0W/qm0.0
25. Nov 2020 um 16:55 Uhr0.9°C0.9°C0.9°C96%1025.9hPa1025.8hPa0.0mm0.0km/h3.2km/h0.0W/qm0.0W/qm0.0
25. Nov 2020 um 17:00 Uhr0.8°C0.9°C0.8°C96%1025.9hPa1025.8hPa0.0mm0.0km/h4.7km/h0.0W/qm0.0W/qm0.0
25. Nov 2020 um 17:05 Uhr0.8°C0.8°C0.8°C96%1025.9hPa1025.8hPa0.0mm0.4km/h0.0km/h0.0W/qm0.0W/qm0.0
25. Nov 2020 um 17:10 Uhr0.8°C0.8°C0.8°C96%1025.9hPa1025.9hPa0.0mm0.3km/h3.2km/h0.0W/qm0.0W/qm0.0
25. Nov 2020 um 17:15 Uhr0.8°C0.8°C0.8°C96%1025.9hPa1025.8hPa0.0mm0.2km/h4.7km/h0.0W/qm0.0W/qm0.0
25. Nov 2020 um 17:20 Uhr0.8°C0.9°C0.8°C97%1025.8hPa1025.8hPa0.0mm1.4km/h4.7km/h0.0W/qm0.0W/qm0.0
25. Nov 2020 um 17:25 Uhr0.8°C0.8°C0.8°C96%1025.8hPa1025.7hPa0.0mm1.4km/h4.7km/h0.0W/qm0.0W/qm0.0
25. Nov 2020 um 17:30 Uhr0.8°C0.8°C0.8°C96%1025.9hPa1025.8hPa0.0mm1.4km/h3.2km/h0.0W/qm0.0W/qm0.0
25. Nov 2020 um 17:35 Uhr0.8°C0.8°C0.8°C96%1026.0hPa1025.9hPa0.0mm0.7km/h3.2km/h0.0W/qm0.0W/qm0.0
25. Nov 2020 um 17:40 Uhr0.8°C0.8°C0.7°C97%1026.1hPa1026.0hPa0.0mm1.2km/h11.2km/h0.0W/qm0.0W/qm0.0
25. Nov 2020 um 17:45 Uhr0.7°C0.8°C0.7°C97%1026.1hPa1026.0hPa0.0mm2.8km/h4.7km/h0.0W/qm0.0W/qm0.0
25. Nov 2020 um 17:50 Uhr0.7°C0.7°C0.7°C97%1026.1hPa1026.1hPa0.0mm1.4km/h0.0km/h0.0W/qm0.0W/qm0.0
25. Nov 2020 um 17:55 Uhr0.7°C0.7°C0.7°C97%1026.1hPa1026.0hPa0.0mm0.4km/h1.4km/h0.0W/qm0.0W/qm0.0
25. Nov 2020 um 18:00 Uhr0.7°C0.7°C0.7°C97%1026.1hPa1026.0hPa0.0mm0.3km/h3.2km/h0.0W/qm0.0W/qm0.0
25. Nov 2020 um 18:05 Uhr0.7°C0.7°C0.7°C97%1026.1hPa1026.0hPa0.0mm1.4km/h7.9km/h0.0W/qm0.0W/qm0.0
25. Nov 2020 um 18:10 Uhr0.7°C0.7°C0.7°C97%1026.1hPa1026.1hPa0.0mm1.4km/h4.7km/h0.0W/qm0.0W/qm0.0
25. Nov 2020 um 18:15 Uhr0.7°C0.7°C0.7°C97%1026.2hPa1026.1hPa0.0mm1.4km/h4.7km/h0.0W/qm0.0W/qm0.0
25. Nov 2020 um 18:20 Uhr0.7°C0.8°C0.7°C97%1026.2hPa1026.2hPa0.0mm1.4km/h3.2km/h0.0W/qm0.0W/qm0.0
25. Nov 2020 um 18:25 Uhr0.8°C0.8°C0.7°C97%1026.2hPa1026.2hPa0.0mm1.4km/h7.9km/h0.0W/qm0.0W/qm0.0
25. Nov 2020 um 18:30 Uhr0.7°C0.7°C0.7°C97%1026.3hPa1026.2hPa0.0mm2.9km/h3.2km/h0.0W/qm0.0W/qm0.0
25. Nov 2020 um 18:35 Uhr0.7°C0.7°C0.7°C97%1026.3hPa1026.2hPa0.0mm1.4km/h4.7km/h0.0W/qm0.0W/qm0.0
25. Nov 2020 um 18:40 Uhr0.6°C0.7°C0.6°C97%1026.3hPa1026.2hPa0.0mm1.9km/h11.2km/h0.0W/qm0.0W/qm0.0
25. Nov 2020 um 18:45 Uhr0.6°C0.6°C0.6°C97%1026.3hPa1026.3hPa0.0mm3.2km/h6.5km/h0.0W/qm0.0W/qm0.0
25. Nov 2020 um 18:50 Uhr0.5°C0.6°C0.5°C97%1026.3hPa1026.2hPa0.0mm1.9km/h6.5km/h0.0W/qm0.0W/qm0.0
25. Nov 2020 um 18:55 Uhr0.4°C0.4°C0.4°C97%1026.3hPa1026.3hPa0.0mm1.4km/h7.9km/h0.0W/qm0.0W/qm0.0
25. Nov 2020 um 19:00 Uhr0.4°C0.4°C0.4°C97%1026.3hPa1026.3hPa0.0mm1.4km/h4.7km/h0.0W/qm0.0W/qm0.0
25. Nov 2020 um 19:05 Uhr0.4°C0.4°C0.3°C97%1026.4hPa1026.3hPa0.0mm2.9km/h7.9km/h0.0W/qm0.0W/qm0.0
25. Nov 2020 um 19:10 Uhr0.4°C0.4°C0.3°C97%1026.4hPa1026.3hPa0.0mm1.4km/h3.2km/h0.0W/qm0.0W/qm0.0
25. Nov 2020 um 19:15 Uhr0.3°C0.4°C0.3°C97%1026.5hPa1026.4hPa0.0mm0.8km/h0.0km/h0.0W/qm0.0W/qm0.0
25. Nov 2020 um 19:20 Uhr0.4°C0.4°C0.4°C97%1026.5hPa1026.4hPa0.0mm1.2km/h6.5km/h0.0W/qm0.0W/qm0.0
25. Nov 2020 um 19:25 Uhr0.4°C0.4°C0.4°C97%1026.5hPa1026.5hPa0.0mm1.4km/h6.5km/h0.0W/qm0.0W/qm0.0
25. Nov 2020 um 19:30 Uhr0.4°C0.4°C0.4°C97%1026.6hPa1026.5hPa0.0mm1.4km/h4.7km/h0.0W/qm0.0W/qm0.0
25. Nov 2020 um 19:35 Uhr0.4°C0.4°C0.4°C97%1026.6hPa1026.5hPa0.0mm1.4km/h6.5km/h0.0W/qm0.0W/qm0.0
25. Nov 2020 um 19:40 Uhr0.4°C0.4°C0.4°C97%1026.7hPa1026.6hPa0.0mm1.4km/h3.2km/h0.0W/qm0.0W/qm0.0
25. Nov 2020 um 19:45 Uhr0.4°C0.4°C0.3°C97%1026.7hPa1026.6hPa0.0mm0.7km/h3.2km/h0.0W/qm0.0W/qm0.0
25. Nov 2020 um 19:50 Uhr0.3°C0.3°C0.3°C97%1026.6hPa1026.6hPa0.0mm1.4km/h4.7km/h0.0W/qm0.0W/qm0.0
25. Nov 2020 um 19:55 Uhr0.2°C0.3°C0.2°C97%1026.6hPa1026.6hPa0.0mm1.4km/h4.7km/h0.0W/qm0.0W/qm0.0
25. Nov 2020 um 20:00 Uhr0.2°C0.2°C0.2°C98%1026.7hPa1026.6hPa0.0mm1.4km/h7.9km/h0.0W/qm0.0W/qm0.0
25. Nov 2020 um 20:05 Uhr0.2°C0.2°C0.2°C97%1026.7hPa1026.6hPa0.0mm1.4km/h6.5km/h0.0W/qm0.0W/qm0.0
25. Nov 2020 um 20:10 Uhr0.2°C0.2°C0.1°C98%1026.8hPa1026.7hPa0.0mm2.4km/h4.7km/h0.0W/qm0.0W/qm0.0
25. Nov 2020 um 20:15 Uhr0.1°C0.1°C0.1°C98%1026.8hPa1026.8hPa0.0mm1.4km/h3.2km/h0.0W/qm0.0W/qm0.0
25. Nov 2020 um 20:20 Uhr0.1°C0.1°C0.1°C97%1026.8hPa1026.8hPa0.0mm1.4km/h4.7km/h0.0W/qm0.0W/qm0.0
25. Nov 2020 um 20:25 Uhr-0.1°C0.0°C-0.1°C97%1026.9hPa1026.8hPa0.0mm1.4km/h3.2km/h0.0W/qm0.0W/qm0.0
25. Nov 2020 um 20:30 Uhr-0.1°C-0.1°C-0.1°C97%1026.8hPa1026.7hPa0.0mm1.4km/h1.4km/h0.0W/qm0.0W/qm0.0
25. Nov 2020 um 20:35 Uhr-0.2°C-0.1°C-0.2°C98%1026.7hPa1026.7hPa0.0mm0.0km/h3.2km/h0.0W/qm0.0W/qm0.0
25. Nov 2020 um 20:40 Uhr-0.2°C-0.2°C-0.3°C97%1026.7hPa1026.7hPa0.0mm0.4km/h1.4km/h0.0W/qm0.0W/qm0.0
25. Nov 2020 um 20:45 Uhr-0.3°C-0.3°C-0.3°C97%1026.7hPa1026.7hPa0.0mm0.6km/h0.0km/h0.0W/qm0.0W/qm0.0
25. Nov 2020 um 20:50 Uhr-0.3°C-0.2°C-0.3°C98%1026.8hPa1026.7hPa0.0mm0.0km/h0.0km/h0.0W/qm0.0W/qm0.0
25. Nov 2020 um 20:55 Uhr-0.2°C-0.2°C-0.2°C98%1026.8hPa1026.7hPa0.0mm0.0km/h0.0km/h0.0W/qm0.0W/qm0.0
25. Nov 2020 um 21:00 Uhr-0.2°C-0.2°C-0.3°C98%1026.8hPa1026.8hPa0.0mm0.0km/h3.2km/h0.0W/qm0.0W/qm0.0
25. Nov 2020 um 21:05 Uhr-0.2°C-0.2°C-0.3°C98%1026.8hPa1026.8hPa0.0mm0.0km/h3.2km/h0.0W/qm0.0W/qm0.0
25. Nov 2020 um 21:10 Uhr-0.2°C-0.2°C-0.3°C98%1026.9hPa1026.8hPa0.0mm1.1km/h6.5km/h0.0W/qm0.0W/qm0.0
25. Nov 2020 um 21:15 Uhr-0.3°C-0.3°C-0.3°C98%1026.9hPa1026.8hPa0.0mm2.5km/h3.2km/h0.0W/qm0.0W/qm0.0
25. Nov 2020 um 21:20 Uhr-0.3°C-0.3°C-0.3°C98%1026.9hPa1026.8hPa0.0mm2.0km/h3.2km/h0.0W/qm0.0W/qm0.0
25. Nov 2020 um 21:25 Uhr-0.3°C-0.3°C-0.3°C98%1026.9hPa1026.8hPa0.0mm1.2km/h4.7km/h0.0W/qm0.0W/qm0.0
25. Nov 2020 um 21:30 Uhr-0.3°C-0.3°C-0.3°C98%1026.8hPa1026.8hPa0.0mm0.0km/h0.0km/h0.0W/qm0.0W/qm0.0